Lafayette, IN

4:01 PM EDT on April 24, 2017 (GMT -0400)
Purdue Univ

Weather History for KLAF - December, 2014

Change the Weather History Date:

Tuesday, December 30, 2014

  Actual Average Record
Temperature  
Mean Temperature 19 °F 27 °F  
Max Temperature 25 °F 34 °F 65 °F (1965)
Min Temperature 13 °F 20 °F -15 °F (1983)
Degree Days  
Heating Degree Days 46 38  
Month to date heating degree days 961 1036  
Since 1 July heating degree days 2413 2137  
Cooling Degree Days 0 0  
Month to date cooling degree days 0 0  
Year to date cooling degree days 743 983  
Moisture  
Dew Point 13 °F    
Average Humidity 74    
Maximum Humidity 92    
Minimum Humidity 56    
Precipitation  
Precipitation T in 0.07 in 0.79 in (1972)
Month to date precipitation 1.79 2.45  
Year to date precipitation 39.78 36.52  
Sea Level Pressure  
Sea Level Pressure 30.60 in    
Wind  
Wind Speed 7 mph (NW)    
Max Wind Speed 15 mph    
Max Gust Speed 18 mph    
Visibility 10 miles    
Events      
T = Trace of Precipitation, MM = Missing Value Source: NWS Daily Summary

Daily Weather History Graph

Daily Weather History Graph

Search for Another Location

Airport or City:

Trip Planner

Search our weather history database for the weather conditions in past years. The results will help you decide how hot, cold, wet, or windy it might be!

Date:

Astronomy

Dec. 30, 2014 Rise Set
Actual Time 8:10 AM EST 5:30 PM EST
Civil Twilight 7:39 AM EST 6:00 PM EST
Nautical Twilight 7:05 AM EST 6:35 PM EST
Astronomical Twilight 6:32 AM EST 7:08 PM EST
Moon 1:43 PM EST (12/30) 2:31 AM EST (12/30)
Length of Visible Light 10h 21m
Length of Day
9h 19m
Waxing Gibbous, 71% of the Moon is Illuminated
Dec 30
Waxing Gibbous
Jan 4
Full
Jan 13
Last Quarter
Jan 20
New
Jan 26
First Quarter

Hourly Weather History & Observations

Time (EST) Temp. Windchill Dew Point Humidity Pressure Visibility Wind Dir Wind Speed Gust Speed Precip Events Conditions
12:54 AM 24.1 °F 16.0 °F 17.1 °F 75% 30.48 in 10.0 mi NE 6.9 mph - N/A   Clear
1:54 AM 23.0 °F 13.1 °F 17.1 °F 78% 30.49 in 10.0 mi NNE 9.2 mph - N/A   Clear
2:54 AM 21.9 °F 15.7 °F 17.1 °F 82% 30.51 in 10.0 mi North 4.6 mph - N/A   Clear
3:54 AM 21.9 °F 17.2 °F 17.1 °F 82% 30.52 in 10.0 mi NNE 3.5 mph - N/A   Mostly Cloudy
4:54 AM 19.9 °F 14.9 °F 17.1 °F 89% 30.53 in 10.0 mi NNE 3.5 mph - N/A   Clear
5:54 AM 18.0 °F 12.7 °F 15.1 °F 88% 30.54 in 10.0 mi North 3.5 mph - N/A   Clear
6:54 AM 18.0 °F 9.8 °F 16.0 °F 92% 30.57 in 10.0 mi NNW 5.8 mph - N/A   Clear
7:54 AM 18.0 °F 9.8 °F 15.1 °F 88% 30.60 in 10.0 mi NNW 5.8 mph - N/A   Clear
8:54 AM 21.0 °F 13.4 °F 17.1 °F 85% 30.61 in 10.0 mi North 5.8 mph - N/A   Overcast
9:54 AM 23.0 °F 15.8 °F 18.0 °F 81% 30.63 in 10.0 mi NW 5.8 mph - N/A   Overcast
10:54 AM 23.0 °F 14.7 °F 19.0 °F 85% 30.66 in 10.0 mi NW 6.9 mph - N/A   Overcast
11:11 AM 23.0 °F 13.9 °F 19.0 °F 85% 30.63 in 7.0 mi NNW 8.1 mph - N/A   Overcast
11:45 AM 23.0 °F 13.9 °F 18.0 °F 81% 30.62 in 8.0 mi NW 8.1 mph - 0.00 in   Overcast
11:54 AM 23.0 °F 13.9 °F 19.0 °F 85% 30.65 in 8.0 mi WNW 8.1 mph - 0.00 in   Overcast
12:54 PM 23.0 °F 12.4 °F 18.0 °F 81% 30.61 in 10.0 mi NNW 10.4 mph - N/A   Overcast
1:34 PM 23.0 °F 12.4 °F 18.0 °F 81% 30.58 in 10.0 mi WNW 10.4 mph - N/A   Overcast
1:54 PM 23.0 °F 11.7 °F 17.1 °F 78% 30.61 in 10.0 mi NW 11.5 mph - N/A   Overcast
2:54 PM 23.0 °F 12.4 °F 14.0 °F 68% 30.62 in 10.0 mi NW 10.4 mph - N/A   Overcast
3:25 PM 23.0 °F 11.1 °F 12.9 °F 65% 30.58 in 10.0 mi NW 12.7 mph - N/A   Partly Cloudy
3:54 PM 23.0 °F 12.4 °F 12.0 °F 63% 30.62 in 10.0 mi WNW 10.4 mph - N/A   Mostly Cloudy
4:27 PM 23.0 °F 11.1 °F 10.9 °F 60% 30.59 in 10.0 mi NNW 12.7 mph - N/A   Scattered Clouds
4:54 PM 21.0 °F 9.9 °F 8.1 °F 57% 30.62 in 10.0 mi NW 10.4 mph - N/A   Clear
5:54 PM 18.0 °F 7.7 °F 5.0 °F 57% 30.63 in 10.0 mi NW 8.1 mph - N/A   Clear
6:54 PM 17.1 °F 7.6 °F 6.1 °F 62% 30.65 in 10.0 mi WNW 6.9 mph - N/A   Clear
7:54 PM 16.0 °F 3.6 °F 3.9 °F 59% 30.65 in 10.0 mi NW 10.4 mph - N/A   Clear
8:54 PM 14.0 °F 3.9 °F 3.9 °F 64% 30.66 in 10.0 mi WNW 6.9 mph - N/A   Clear
9:54 PM 12.9 °F 2.6 °F 5.0 °F 71% 30.66 in 10.0 mi WNW 6.9 mph - N/A   Clear
10:54 PM 12.9 °F 1.6 °F 3.9 °F 67% 30.66 in 10.0 mi WNW 8.1 mph - N/A   Clear
11:54 PM 12.9 °F 1.6 °F 3.0 °F 65% 30.66 in 10.0 mi WNW 8.1 mph - N/A   Clear